Hourly Data Report for January 13, 2022

BANCROFT AUTO
ONTARIO
Current Station Operator: ECCC - MSC

45°04'17.000" N
77°52'44.000" W
330.70 m
616I001
71294
WRK

Download Data

Hourly Data (January 2022)
Hourly Data Report for January 13, 2022
TIME
LST
Temp Definition
°C
Dew Point Definition
°C
Rel Hum Definition
%
Precip. Amount Definition
mm

Wind Dir Definition
10's deg

Wind Spd Definition
km/h
Visibility Definition
km
Stn Press Definition
kPa
Hmdx Definition


Wind Chill Definition


Weather Definition


00:00 -6.8 -8.2 90 0.0 36 4   97.50   -9 LegendNANA
01:00 -7.0 -8.2 91 0.0 3 2   97.46   -8 LegendNANA
02:00 -7.1 -8.3 91 0.0 2 5   97.45   -10 LegendNANA
03:00 -7.3 -8.4 91 0.0 2 3   97.47   -9 LegendNANA
04:00 -7.4 -8.5 92 0.0 1 3   97.41   -9 LegendNANA
05:00 -7.5 -8.6 92 0.0 5 2   97.36   -9 LegendNANA
06:00 -7.5 -8.6 92 0.0 1 2   97.39   -9 LegendNANA
07:00 -7.4 -8.5 92 0.0 34 1   97.41   -8 LegendNANA
08:00 -7.3 -8.3 93 0.0   0   97.40     LegendNANA
09:00 -7.0 -8.1 92 0.0 36 2   97.38   -8 LegendNANA
10:00 -6.7 -7.8 92 0.0 0 1   97.39   -7 LegendNANA
11:00 -6.1 -7.2 91 0.0 0 1   97.32   -7 LegendNANA
12:00 -5.1 -6.3 91 0.0 13 2   97.22   -6 LegendNANA
13:00 -4.6 -5.8 92 0.0 5 2   97.15   -5 LegendNANA
14:00 -4.0 -5.2 91 0.0 7 4   97.08   -6 LegendNANA
15:00 -3.4 -4.5 92 0.0 9 2   97.09   -4 LegendNANA
16:00 -3.4 -4.4 93 0.0 1 1   97.12   -4 LegendNANA
17:00 -3.6 -4.3 94 0.0   0   97.16     LegendNANA
18:00 -3.8 -4.4 96 0.0   0   97.19     LegendNANA
19:00 -4.0 -5.0 92 0.0 0 1   97.25   -4 LegendNANA
20:00 -4.4 -5.2 94 0.0   0   97.28     LegendNANA
21:00 -4.2 -5.7 89 0.0 26 1   97.28   -5 LegendNANA
22:00 -4.2 -6.6 84 0.0 31 7   97.31   -7 LegendNANA
23:00 -4.7 -6.9 84 0.0 32 5   97.33   -7 LegendNANA

Notes on Data Quality.

Legend

  • E = Estimated
  • M = Missing
  • NA = Not Available*
  • [empty] = Indicates an unobserved value
Date modified: